Location: Obersdorf
(47.4079°N, 10.2781°E)
Time: 02:31:24
(UTC+01:00)

XW-2C - Pass Details

Date: 10 December 2021
Orbit: 503 x 523 km, 97.5° (Epoch: 16 January)

Event Time Altitude Azimuth Distance (km) Brightness Sun altitude
Rises 17:03:13 0° 155° (SSE) 2,622 ? -5.9°
Reaches altitude 10° 17:05:19 10° 150° (SSE) 1,744 ? -6.3°
Maximum altitude 17:09:00 55° 73° (ENE) 634 ? -6.8°
Drops below altitude 10° 17:12:44 10° 356° (N) 1,769 ? -7.4°
Sets 17:14:52 0° 352° (N) 2,665 ? -7.7°
